Regional Weather Roundup
Issued by NWS

Home | Current Version | Previous Version | Text Only | Print | Product List | Glossary Off
Versions: 1 2 3 4 5 6 7 8 9 10 11 12 13 14 15 16 17 18 19 20 21 22 23 24 25 26 27 28 29 30 31 32 33 34 35 36 37 38 39 40 41 42 43 44 45 46 47 48 49 50

000
ASUS43 KTOP 010759
RWRKS

WEATHER ROUNDUP FOR KANSAS
NATIONAL WEATHER SERVICE GOODLAND KS
300 AM CDT TUE SEP 01 2015

NOTE:  "FAIR" INDICATES FEW OR NO CLOUDS BELOW 12,000 FEET WITH NO
SIGNIFICANT WEATHER AND/OR OBSTRUCTIONS TO VISIBILITY.

KSZ001>006-013>018-027>032-041>047-010900-
NORTHWEST KANSAS

CITY           SKY/WX    TMP DP  RH WIND       PRES   REMARKS
GOODLAND       CLOUDY    64  62  93 NW5       29.98S
HAYS           CLEAR     75  54  46 S14       29.96S
HILL CITY      PTCLDY    77  54  44 SW12      29.95R
RUSSELL        CLEAR     76  60  57 S15       29.95S
$$

KSZ061>065-074>080-084>089-010900-
SOUTHWEST KANSAS

CITY           SKY/WX    TMP DP  RH WIND       PRES   REMARKS
DODGE CITY     PTCLDY    69  55  60 S14       29.99F
ELKHART          N/A     69  55  60 W6          N/A
GARDEN CITY    PTCLDY    66  55  67 S8        29.97F
GREAT BEND     CLEAR     75  61  60 S15       29.98R
LIBERAL        PTCLDY    68  52  56 S13       30.00F
$$

KSZ066>073-081>083-090>101-010900-
SOUTHEAST KANSAS

CITY           SKY/WX    TMP DP  RH WIND       PRES   REMARKS
CHANUTE        CLEAR     72  69  90 S6        30.02R
COFFEYVILLE    CLEAR     72  69  90 S5        30.01S
HUTCHINSON     CLEAR     75  62  64 S10       29.98F
NEWTON         CLEAR     73  61  64 S12       30.01S
PARSONS        CLEAR     74  69  85 MISG      30.02S
WICHITA INTL   PTCLDY    71  64  78 S7        29.99S
WICHITA JABRA  CLEAR     74  64  71 S9        29.99S
WINFIELD       CLEAR     73  64  73 S12       30.01S
$$

KSZ007>012-019>026-033>040-048>060-102>105-010900-
NORTHEAST KANSAS

CITY           SKY/WX    TMP DP  RH WIND       PRES   REMARKS
CONCORDIA      CLEAR     73  63  70 S18       29.93S
EMPORIA        CLEAR     70  68  93 S15       29.99R
LAWRENCE       CLEAR     72  69  90 E7        29.99R
MANHATTAN      CLEAR     75  67  76 SW10      29.95S
OLATHE IND     CLEAR     72  69  90 S7        30.01S
OLATHE EXE     CLEAR     73  68  84 S7        30.00S
SALINA         CLEAR     76  63  64 S14       29.95S
TOPEKA BILLARD CLEAR     75  69  81 SE5       29.97S
TOPEKA FORBES  CLEAR     75  70  84 S8        29.98S
$$


USA.gov is the U.S. government's official web portal to all federal, state and local government web resources and services.